IU7URP-13 Weather Reports


Display with metric or nautical units.
time (UTC)temp
F
wind
direction
speed
MPH
gust
MPH
rain 1hr
in
rain 24hr
in
rain mn
in
humidity
%
barometer
mb
20260505162418 69 0.0 0.0 0.00 0.00 0.00 99 1019.0
20260505160417 69 0.0 0.0 0.00 0.00 0.00 99 1019.0
20260505152414 70 0.0 0.0 0.00 0.00 0.00 99 1019.1
20260505150413 70 0.0 0.0 0.00 0.00 0.00 99 1019.1
20260505140304 73 0.0 0.0 0.00 0.00 0.00 99 1019.3
20260505130300 75 0.0 0.0 0.00 0.00 0.00 46 1019.3
20260505124935 77 0.0 0.0 0.00 0.00 0.00 53 1019.4
20260505122928 76 0.0 0.0 0.00 0.00 0.00 54 1019.6
20260505121627 76 0.0 0.0 0.00 0.00 0.00 62 1019.6
20260505120328 77 0.0 0.0 0.00 0.00 0.00 59 1019.8
20260505120231 77 0.0 0.0 0.00 0.00 0.00 58 1019.8
20260505114230 75 0.0 0.0 0.00 0.00 0.00 70 1019.8
20260505112227 76 0.0 0.0 0.00 0.00 0.00 86 1020.1
20260505110225 75 0.0 0.0 0.00 0.00 0.00 99 1020.1
20260505100742 72 0.0 0.0 0.00 0.00 0.00 99 1020.3
20260505094740 73 0.0 0.0 0.00 0.00 0.00 99 1020.4
20260505092739 71 0.0 0.0 0.00 0.00 0.00 99 1020.6
20260505091439 73 0.0 0.0 0.00 0.00 0.00 99 1020.7
20260505085437 72 0.0 0.0 0.00 0.00 0.00 99 1020.9
20260505083435 72 0.0 0.0 0.00 0.00 0.00 99 1020.9
20260505081434 70 0.0 0.0 0.00 0.00 0.00 99 1020.9
20260505075433 72 0.0 0.0 0.00 0.00 0.00 99 1021.2
20260505073432 70 0.0 0.0 0.00 0.00 0.00 99 1021.3
20260505071430 69 0.0 0.0 0.00 0.00 0.00 99 1021.3
20260505065429 67 0.0 0.0 0.00 0.00 0.00 99 1021.5
20260505064713 68 0.0 0.0 0.00 0.00 0.00 99 1021.5
20260505062712 66 0.0 0.0 0.00 0.00 0.00 99 1021.4
20260505062614 66 0.0 0.0 0.00 0.00 0.00 99 1021.4
20260505060613 65 0.0 0.0 0.00 0.00 0.00 99 1021.4
20260505054611 65 0.0 0.0 0.00 0.00 0.00 99 1021.4
20260505052610 63 0.0 0.0 0.00 0.00 0.00 99 1021.4
20260505050608 62 0.0 0.0 0.00 0.00 0.00 99 1021.4
20260505041239 58 0.0 0.0 0.00 0.00 0.00 99 1021.4
20260505035238 57 0.0 0.0 0.00 0.00 0.00 99 1021.3
20260505033236 57 0.0 0.0 0.00 0.00 0.00 99 1021.4
20260505033126 57 0.0 0.0 0.00 0.00 0.00 99 1021.4
20260505031124 58 0.0 0.0 0.00 0.00 0.00 99 1021.4
20260505025122 57 0.0 0.0 0.00 0.00 0.00 99 1021.3
20260505023053 56 0.0 0.0 0.00 0.00 0.00 99 1021.3
20260505021051 55 0.0 0.0 0.00 0.00 0.00 99 1021.2
20260505015050 56 0.0 0.0 0.00 0.00 0.00 99 1021.2
20260505013049 55 0.0 0.0 0.00 0.00 0.00 99 1021.2
20260505011048 54 0.0 0.0 0.00 0.00 0.00 99 1021.1
20260505005046 54 0.0 0.0 0.00 0.00 0.00 99 1021.1
20260505003045 55 0.0 0.0 0.00 0.00 0.00 99 1021.1
20260505001049 56 0.0 0.0 0.00 0.00 0.00 99 1021.2
20260504235047 58 0.0 0.0 0.00 0.00 0.00 99 1021.2
20260504233046 58 0.0 0.0 0.00 0.00 0.00 99 1021.4
20260504231055 57 0.0 0.0 0.00 0.00 0.00 99 1021.6
20260504225053 56 0.0 0.0 0.00 0.00 0.00 99 1021.8
20260504223052 57 0.0 0.0 0.00 0.00 0.00 99 1021.7
20260504221050 60 0.0 0.0 0.00 0.00 0.00 99 1021.5
20260504215048 61 0.0 0.0 0.00 0.00 0.00 99 1021.4
20260504213046 61 0.0 0.0 0.00 0.00 0.00 99 1021.3
20260504211045 61 0.0 0.0 0.00 0.00 0.00 99 1021.2
20260504205043 62 0.0 0.0 0.00 0.00 0.00 99 1021.2
20260504203042 62 0.0 0.0 0.00 0.00 0.00 99 1021.0
20260504201040 63 0.0 0.0 0.00 0.00 0.00 99 1021.0
20260504195039 65 0.0 0.0 0.00 0.00 0.00 99 1021.0
20260504193036 65 0.0 0.0 0.00 0.00 0.00 99 1020.9
20260504191034 64 0.0 0.0 0.00 0.00 0.00 99 1020.8
20260504185033 64 0.0 0.0 0.00 0.00 0.00 99 1020.6
20260504183029 65 0.0 0.0 0.00 0.00 0.00 99 1020.4
20260504181028 65 0.0 0.0 0.00 0.00 0.00 99 1020.1
20260504175026 66 0.0 0.0 0.00 0.00 0.00 99 1020.0
20260504174342 66 0.0 0.0 0.00 0.00 0.00 99 1019.8
20260504173425 67 0.0 0.0 0.00 0.00 0.00 95 1019.7
20260504171424 69 0.0 0.0 0.00 0.00 0.00 81 1019.6